Weather History for Altus AFB, OK

Change the Weather History Date:

Monday, September 3, 2012

  Actual Average Record
Temperature  
Mean Temperature 88 °F -  
Max Temperature 104 °F 90 °F 105 °F (1998)
Min Temperature 72 °F 66 °F 61 °F (2010)
Cooling Degree Days 23    
Growing Degree Days 38 (Base 50)    
Moisture  
Dew Point 63 °F    
Average Humidity 45    
Maximum Humidity 75    
Minimum Humidity 23    
Precipitation  
Precipitation 0.00 in - - ()
Sea Level Pressure  
Sea Level Pressure 29.85 in    
Wind  
Wind Speed 7 mph (South)    
Max Wind Speed 13 mph    
Max Gust Speed 22 mph    
Visibility 10 miles    
Events      
Averages and records for this station are not official NWS values.
T = Trace of Precipitation, MM = Missing Value Source: NWS Daily Summary

Daily Weather History Graph

Daily Weather History Graph

Search for Another Location

Airport:

Trip Planner

Search our weather history database for the weather conditions in past years. The results will help you decide how hot, cold, wet, or windy it might be!

Date:

Astronomy

Sep. 03, 2012 Rise Set
Actual Time 7:11 AM CDT 7:59 PM CDT
Civil Twilight 6:46 AM CDT 8:25 PM CDT
Nautical Twilight 6:15 AM CDT 8:55 PM CDT
Astronomical Twilight 5:44 AM CDT 9:26 PM CDT
Moon 9:31 PM CDT (9/3) 10:10 AM CDT (9/3)
Length of Visible Light 13h 39m
Length of Day
12h 48m
Waning Gibbous, 90% of the Moon is Illuminated
Sep 3
Waning Gibbous
Sep 8
Last Quarter
Sep 15
New
Sep 22
First Quarter
Sep 29
Full

Hourly Weather History & Observations

Time (CDT) Temp. Heat Index Dew Point Humidity Pressure Visibility Wind Dir Wind Speed Gust Speed Precip Events Conditions
12:55 AM 80.4 °F 82.0 °F 63.9 °F 57% 29.85 in 10.0 mi ESE 8.1 mph - N/A   Clear
1:55 AM 78.4 °F - 63.9 °F 61% 29.84 in 10.0 mi ESE 6.9 mph - N/A   Clear
2:55 AM 76.5 °F - 64.0 °F 65% 29.84 in 10.0 mi SE 5.8 mph - N/A   Clear
3:55 AM 76.1 °F - 63.9 °F 66% 29.85 in 10.0 mi ESE 5.8 mph - N/A   Clear
4:55 AM 75.6 °F - 63.7 °F 66% 29.86 in 10.0 mi ESE 3.5 mph - N/A   Clear
5:55 AM 74.3 °F - 63.9 °F 70% 29.87 in 10.0 mi Calm Calm - N/A   Clear
6:55 AM 72.7 °F - 64.2 °F 75% 29.88 in 10.0 mi Calm Calm - N/A   Clear
7:55 AM 75.0 °F - 64.4 °F 69% 29.90 in 10.0 mi SSW 4.6 mph - N/A   Clear
8:55 AM 82.0 °F 83.6 °F 64.4 °F 55% 29.91 in 10.0 mi South 3.5 mph - N/A   Clear
9:55 AM 88.9 °F 90.7 °F 64.8 °F 45% 29.91 in 10.0 mi SSW 4.6 mph - N/A   Clear
10:55 AM 94.1 °F 95.9 °F 64.0 °F 37% 29.91 in 10.0 mi SW 11.5 mph - N/A   Clear
11:55 AM 97.2 °F 99.6 °F 64.2 °F 34% 29.90 in 10.0 mi SW 10.4 mph - N/A   Clear
12:55 PM 98.8 °F 101.4 °F 64.0 °F 32% 29.89 in 10.0 mi SSW 6.9 mph - N/A   Clear
1:55 PM 100.2 °F 102.1 °F 62.6 °F 29% 29.86 in 10.0 mi SSW 9.2 mph - N/A   Clear
2:55 PM 101.8 °F 103.6 °F 61.5 °F 27% 29.84 in 10.0 mi South 9.2 mph - N/A   Partly Cloudy
3:55 PM 102.9 °F 104.2 °F 61.2 °F 25% 29.81 in 10.0 mi SW 12.7 mph 21.9 mph N/A   Clear
4:55 PM 104.2 °F 104.9 °F 59.7 °F 23% 29.80 in 10.0 mi SSW 9.2 mph - N/A   Mostly Cloudy
5:55 PM 101.3 °F 101.1 °F 58.8 °F 24% 29.79 in 10.0 mi South 11.5 mph - N/A   Partly Cloudy
6:55 PM 101.5 °F 101.9 °F 59.7 °F 25% 29.79 in 10.0 mi South 10.4 mph - N/A   Scattered Clouds
7:55 PM 97.7 °F 98.0 °F 60.8 °F 29% 29.79 in 10.0 mi SE 9.2 mph - N/A   Scattered Clouds
8:55 PM 93.2 °F 93.3 °F 61.0 °F 34% 29.80 in 10.0 mi SE 10.4 mph - N/A   Mostly Cloudy
9:55 PM 89.6 °F 90.1 °F 62.1 °F 40% 29.83 in 10.0 mi SSE 9.2 mph - N/A   Clear
10:55 PM 86.4 °F 86.5 °F 61.7 °F 43% 29.83 in 10.0 mi SE 9.2 mph - N/A   Clear
11:55 PM 81.7 °F 82.6 °F 61.7 °F 51% 29.84 in 10.0 mi SE 6.9 mph - N/A   Clear